Tracking 22124 objects as of 23-Jan-2021
HD Live streaming from Space Station
objects crossing your sky now

FLOCK 4V 3

Track FLOCK 4V 3 now!
10-day predictions
FLOCK 4V 3 is classified as:


NORAD ID: 46322
Int'l Code: 2020-061BC
Perigee: 537.1 km
Apogee: 543.0 km
Inclination: 97.5 °
Period: 95.3 minutes
Semi major axis: 6911 km
RCS: Unknown
Launch date: September 3, 2020
Source: United States (US)
Launch site: FRENCH GUIANA (FRGUI)
aabbcc
Your satellite tracking list
Your tracking list is empty




NASA's NSSDC Master Catalog

Two Line Element Set (TLE):
1 46322U 20061BC  21022.93341934  .00000447  00000-0  30512-4 0  9999
2 46322  97.5047  99.5004 0004325 128.2668 231.8951 15.11074514 21354
Source of the keplerian elements: AFSPC